Charlevoix, MI

2:49 PM EDT on May 29, 2017 (GMT -0400)
Charlevoix Municipal

Weather History for KCVX - March, 2012

Change the Weather History Date:

Wednesday, March 21, 2012

  Actual Average Record
Temperature  
Mean Temperature 66 °F -  
Max Temperature 83 °F 45 °F 83 °F (2012)
Min Temperature 49 °F 31 °F 15 °F (2015)
Cooling Degree Days 1    
Growing Degree Days 16 (Base 50)    
Moisture  
Dew Point 51 °F    
Average Humidity 51    
Maximum Humidity 81    
Minimum Humidity 34    
Precipitation  
Precipitation 0.00 in - - ()
Sea Level Pressure  
Sea Level Pressure 30.08 in    
Wind  
Wind Speed 8 mph (SW)    
Max Wind Speed 17 mph    
Max Gust Speed 25 mph    
Visibility 10 miles    
Events      
Averages and records for this station are not official NWS values.
T = Trace of Precipitation, MM = Missing Value Source: NWS Daily Summary

Daily Weather History Graph

Daily Weather History Graph

Search for Another Location

Airport or City:

Trip Planner

Search our weather history database for the weather conditions in past years. The results will help you decide how hot, cold, wet, or windy it might be!

Date:

Astronomy

Mar. 21, 2012 Rise Set
Actual Time 7:41 AM EDT 7:55 PM EDT
Civil Twilight 7:11 AM EDT 8:25 PM EDT
Nautical Twilight 6:37 AM EDT 8:59 PM EDT
Astronomical Twilight 6:01 AM EDT 9:35 PM EDT
Moon 6:52 AM EDT (3/21) 7:22 PM EDT (3/21)
Length of Visible Light 13h 13m
Length of Day
12h 14m
Waning Crescent, 1% of the Moon is Illuminated
Mar 21
Waning Crescent
Mar 22
New
Mar 30
First Quarter
Apr 6
Full
Apr 13
Last Quarter

Hourly Weather History & Observations

Time (EDT) Temp. Heat Index Dew Point Humidity Pressure Visibility Wind Dir Wind Speed Gust Speed Precip Events Conditions
12:15 AM 57.7 °F - 46.9 °F 67% 30.07 in 10.0 mi SSE 4.6 mph - N/A   Clear
12:35 AM 63.5 °F - 45.5 °F 52% 30.07 in 10.0 mi SSE 4.6 mph - N/A   Clear
12:55 AM 68.0 °F - 46.2 °F 46% 30.07 in 10.0 mi SSE 6.9 mph - N/A   Clear
1:35 AM 68.7 °F - 49.3 °F 50% 30.07 in 10.0 mi SSE 6.9 mph - N/A   Clear
1:55 AM 68.7 °F - 50.0 °F 51% 30.07 in 10.0 mi South 8.1 mph - N/A   Clear
2:14 AM 68.4 °F - 50.5 °F 53% 30.07 in 10.0 mi SSE 6.9 mph - N/A   Clear
2:35 AM 68.2 °F - 51.1 °F 54% 30.08 in 10.0 mi SSE 6.9 mph - N/A   Clear
2:55 AM 68.9 °F - 52.0 °F 55% 30.08 in 10.0 mi SSE 6.9 mph - N/A   Clear
8:45 AM 66.2 °F - 53.6 °F 64% 30.11 in 10.0 mi South 8.1 mph - N/A   Clear
9:05 AM 68.0 °F - 53.6 °F 60% 30.11 in 10.0 mi South 8.1 mph - N/A   Clear
9:25 AM 69.8 °F - 53.6 °F 56% 30.11 in 10.0 mi South 10.4 mph - N/A   Clear
9:45 AM 73.4 °F - 53.6 °F 50% 30.12 in 10.0 mi South 6.9 mph 19.6 mph N/A   Clear
10:05 AM 73.4 °F - 53.6 °F 50% 30.11 in 10.0 mi SSW 13.8 mph 19.6 mph N/A   Clear
10:25 AM 75.2 °F - 53.6 °F 47% 30.11 in 10.0 mi South 13.8 mph 20.7 mph N/A   Clear
10:45 AM 77.0 °F - 53.6 °F 44% 30.12 in 10.0 mi South 13.8 mph 19.6 mph N/A   Clear
11:05 AM 77.0 °F - 53.6 °F 44% 30.12 in 10.0 mi South 12.7 mph 19.6 mph N/A   Clear
11:45 AM 78.8 °F - 53.6 °F 42% 30.12 in 10.0 mi SSW 17.3 mph 25.3 mph N/A   Clear
12:05 PM 78.8 °F - 53.6 °F 42% 30.11 in 10.0 mi SSW 15.0 mph 24.2 mph N/A   Clear
12:45 PM 80.6 °F 80.3 °F 53.6 °F 39% 30.10 in 10.0 mi SSW 13.8 mph 19.6 mph N/A   Clear
1:05 PM 82.4 °F 81.4 °F 53.6 °F 37% 30.09 in 10.0 mi SSW 13.8 mph 19.6 mph N/A   Clear
1:41 PM 83.3 °F - 52.5 °F 34% 30.09 in 10.0 mi SSW 12.7 mph 21.9 mph N/A   Clear
1:55 PM 83.7 °F - 52.3 °F 34% 30.09 in 10.0 mi SW 13.8 mph 20.7 mph N/A   Clear
2:14 PM 76.6 °F - 52.7 °F 43% 30.09 in 10.0 mi West 12.7 mph - N/A   Scattered Clouds
2:35 PM 78.3 °F - 52.9 °F 41% 30.09 in 10.0 mi WSW 6.9 mph - N/A   Scattered Clouds
2:55 PM 80.2 °F - 52.3 °F 38% 30.08 in 10.0 mi SW 15.0 mph 19.6 mph N/A   Clear
3:14 PM 81.0 °F 80.4 °F 53.2 °F 38% 30.07 in 10.0 mi WSW 16.1 mph 23.0 mph N/A   Clear
3:35 PM 80.2 °F 80.0 °F 53.4 °F 39% 30.06 in 10.0 mi WSW 11.5 mph 24.2 mph N/A   Clear
3:55 PM 79.7 °F - 53.6 °F 40% 30.06 in 10.0 mi West 10.4 mph - N/A   Clear
4:14 PM 78.8 °F - 53.1 °F 41% 30.05 in 10.0 mi WSW 12.7 mph - N/A   Clear
4:35 PM 78.1 °F - 53.2 °F 42% 30.05 in 10.0 mi West 9.2 mph - N/A   Clear
4:55 PM 78.1 °F - 52.2 °F 40% 30.05 in 10.0 mi WSW 9.2 mph - N/A   Clear
5:15 PM 77.9 °F - 51.4 °F 40% 30.05 in 10.0 mi WSW 10.4 mph - N/A   Clear
5:35 PM 77.9 °F - 51.8 °F 40% 30.05 in 10.0 mi WSW 10.4 mph - N/A   Clear
5:54 PM 76.8 °F - 52.0 °F 42% 30.05 in 10.0 mi West 9.2 mph - N/A   Clear
6:15 PM 75.7 °F - 52.0 °F 43% 30.05 in 10.0 mi West 8.1 mph - N/A   Clear
6:35 PM 74.3 °F - 51.8 °F 45% 30.05 in 10.0 mi WSW 9.2 mph - N/A   Clear
6:54 PM 72.7 °F - 51.1 °F 47% 30.06 in 10.0 mi WSW 11.5 mph - N/A   Clear
7:15 PM 71.6 °F - 51.1 °F 48% 30.06 in 10.0 mi WSW 9.2 mph - N/A   Clear
7:35 PM 70.9 °F - 50.7 °F 49% 30.06 in 10.0 mi WSW 8.1 mph - N/A   Clear
7:54 PM 68.9 °F - 50.9 °F 53% 30.07 in 10.0 mi WSW 5.8 mph - N/A   Clear
8:15 PM 68.0 °F - 50.7 °F 54% 30.07 in 10.0 mi SW 4.6 mph - N/A   Clear
8:35 PM 69.8 °F - 50.5 °F 50% 30.07 in 10.0 mi SW 5.8 mph - N/A   Clear
8:54 PM 70.3 °F - 50.2 °F 49% 30.07 in 10.0 mi SW 4.6 mph - N/A   Clear
9:15 PM 70.5 °F - 50.0 °F 48% 30.08 in 10.0 mi SW 4.6 mph - N/A   Clear
9:34 PM 60.6 °F - 48.2 °F 64% 30.09 in 10.0 mi West 4.6 mph - N/A   Clear
9:55 PM 58.1 °F - 48.2 °F 70% 30.09 in 10.0 mi West 3.5 mph - N/A   Clear
10:15 PM 60.8 °F - 48.7 °F 64% 30.09 in 10.0 mi South 3.5 mph - N/A   Clear
10:34 PM 59.4 °F - 48.6 °F 67% 30.10 in 10.0 mi NNW 6.9 mph - N/A   Clear
10:55 PM 50.2 °F - 44.6 °F 81% 30.10 in 10.0 mi WNW 3.5 mph - N/A   Clear
11:14 PM 49.8 °F - 44.2 °F 81% 30.11 in 7.0 mi Calm Calm - N/A   Clear
11:35 PM 49.8 °F - 44.1 °F 81% 30.10 in 5.0 mi Calm Calm - N/A   Haze
11:55 PM 50.5 °F - 45.0 °F 81% 30.12 in 7.0 mi North 6.9 mph - N/A   Clear